Zurück zum Katalog

ORBCOMM FM 3

AktivKommunikationLEO
NORAD 25158·PAYLOAD·🇺🇸 United States

Gestartet Feb 10, 1998 von Vandenberg Space Force Base

Loading…

Nächste Überflüge (nächste 24 Stunden)

TLE

AktuellSource: Space-Track

Epoche: Sep 14, 2026, 05:52 UTC

1 25158U 98007B   26257.24483799  .00000558  00000-0  23659-3 0  9999
2 25158 107.9614 349.2004 0044800 175.9376 184.2135 14.35647159489186

Verfolge ORBCOMM FM 3 in Echtzeit mit AllMySat

Download on the App Store